Location: Newark
(44.4156°N, 12.1972°E)
Time: 10:21:11
(UTC+00:00)

STARLINK-1080 - Pass Details

Date: 31 January 2020
Orbit: 348 x 351 km, 53.0° (Epoch: 22 February)

Event Time Altitude Azimuth Distance (km) Brightness Sun altitude
Rises 18:37:55 0° 293° (WNW) 2,162 7.8 -25.0°
Reaches altitude 10° 18:40:15 10° 274° (W) 1,315 6.6 -25.5°
Enters shadow 18:41:42 18° 247° (WSW) 966 5.6 -25.7°
